Regional Weather Roundup
Issued by NWS San Angelo, TX

Home | Current Version | Previous Version | Text Only | Print | Product List | Glossary On
Versions: 1 2 3 4 5 6 7 8 9 10 11 12 13 14 15 16 17 18 19 20 21 22 23 24 25 26 27 28 29 30 31 32 33 34 35 36 37 38 39 40 41 42 43 44 45 46 47 48 49 50
000
ASUS44 KSJT 171010
RWRSJT
WEST CENTRAL TEXAS REGIONAL WEATHER ROUNDUP
NATIONAL WEATHER SERVICE SAN ANGELO TX
500 AM CDT THU APR 17 2014

NOTE: "FAIR" INDICATES FEW OR NO CLOUDS BELOW 12,000 FEET WITH NO
SIGNIFICANT WEATHER AND/OR OBSTRUCTIONS TO VISIBILITY.

TXZ049-054-064>066-071>073-076>078-098-099-113-114-127-128-139-140-
154-155-168>170-171100
...LOCATIONS ACROSS WEST CENTRAL TEXAS...

CITY           SKY/WX    TMP DP  RH WIND       PRES   REMARKS
SAN ANGELO     CLEAR     53  45  74 SE6       29.88S
ABILENE        CLEAR     53  45  74 SE18      29.91R
DYESS AFB      PTCLDY    54  45  71 E8        29.91R
JUNCTION       CLOUDY    58  51  78 S16G25    29.92F
SWEETWATER     MOCLDY    55  43  63 E7        29.93R
BROWNWOOD      CLOUDY    55  48  76 SE15G23   29.96R
COLEMAN        CLOUDY    54  47  76 SE13G20   29.94S
SONORA         PTCLDY    55  52  88 S12G17    29.91R
OZONA          FAIR      54  46  76 S13       29.91S
BRADY          CLOUDY    55  48  76 SE12      29.93R
$$

TEXAS PANHANDLE/OKLAHOMA PANHANDLE

CITY           SKY/WX    TMP DP  RH WIND       PRES   REMARKS
AMARILLO       CLOUDY    45  33  63 NE17      30.01R WCI  38
BORGER         CLOUDY    47  32  56 NE12G23   30.05R
CANADIAN       CLOUDY    49  36  61 E14       30.06R
DALHART        MOCLDY    42  31  64 N16       30.09R WCI  34
DUMAS          PTSUNNY   42  31  64 NE15G24   30.06R WCI  34
GUYMON         NOT AVBL
HEREFORD       PTSUNNY   47  31  53 NE15      29.99R
PAMPA          CLOUDY    44  33  64 E16G23    30.03S WCI  36
PERRYTON       MOCLDY    44  33  64 NE15G22   30.09R WCI  37
$$

SOUTHERN PANHANDLE/SOUTH PLAINS/ROLLING PLAINS

CITY           SKY/WX    TMP DP  RH WIND       PRES   REMARKS
LUBBOCK        CLOUDY    50  33  52 E6        29.94R
SNYDER         PTCLDY    55  39  56 E9        29.88S
CHILDRESS      CLOUDY    52  42  69 SE13G21   29.98R
SEMINOLE       MOSUNNY   47  33  58 NW6       29.91S
$$

PERMIAN BASIN

CITY           SKY/WX    TMP DP  RH WIND       PRES   REMARKS
MIDLAND        CLEAR     56  42  59 S13       29.83R
ODESSA         CLEAR     55  41  59 S10       29.84R
WINK           CLEAR     55  40  56 W8        29.85R
$$

FAR WEST/SOUTHWEST MOUNTAINS/TRANS PECOS

CITY           SKY/WX    TMP DP  RH WIND       PRES   REMARKS
ALPINE         SUNNY     59  16  18 SW7       29.96S
DRYDEN           N/A     57  46  66 E10       29.86R
EL PASO        MOCLDY    68   2   7 W14       29.89R
FORT STOCKTON  CLEAR     54  40  59 S21G28    29.83S
GUADALUPE PASS CLEAR     53  19  26 E14       29.96R
MARFA          CLEAR     45  16  31 W3        29.96S
PECOS          SUNNY     52  33  48 NW8       29.85R
$$

DALLAS/FORT WORTH METROPLEX

CITY           SKY/WX    TMP DP  RH WIND       PRES   REMARKS
DFW AIRPORT    PTCLDY    50  44  80 SE8       30.06R
FTW MEACHAM    CLEAR     52  46  80 SE9       30.05R
DAL-EXECUTIVE  CLEAR     48  43  82 SE5       30.06R
GRAND PRAIRIE  CLEAR     50  45  81 SE6       30.09R
ADDISON        CLEAR     53  45  74 SE7       30.09R
MESQUITE       SUNNY     48  42  80 SE6       30.08S
LANCASTER      SUNNY     47  42  82 CALM      30.08S
$$

NORTH CENTRAL TEXAS

CITY           SKY/WX    TMP DP  RH WIND       PRES   REMARKS
SHRMAN/DENISON SUNNY     50  39  65 SE10      30.08S
GAINESVILLE    CLEAR     46  40  79 E5        30.09R
BRIDGEPORT     SUNNY     48  43  82 SE3       30.07R
DENTON         CLEAR     50  44  80 SE8       30.06R
WAXAHACHIE     SUNNY     47  44  91 E3        30.08R
GRANBURY       PTSUNNY   54  47  80 E9        30.05R
$$

WESTERN NORTH TEXAS

CITY           SKY/WX    TMP DP  RH WIND       PRES   REMARKS
WICHITA FALLS  MOCLDY    48  41  76 E7        30.02R
VERNON         CLOUDY    52  42  68 E8        30.02R
BRECKENRIDGE   SUNNY     53  46  74 E10       29.98R
COMANCHE       CLOUDY    53  48  83 SE8       29.99R
$$

CENTRAL AND SOUTH CENTRAL TEXAS

CITY           SKY/WX    TMP DP  RH WIND       PRES   REMARKS
AUSTIN/BERGSTM CLOUDY    55  51  86 E3        30.00S
WACO           CLOUDY    54  49  83 E7        30.04R
HILLSBORO      MOSUNNY   50  46  84 E12       30.05S
TEMPLE         CLOUDY    55  48  76 SE8       30.05S
KILLEEN-GRAY   MOCLDY    54  52  94 SE12      30.00S
FORT HOOD      NOT AVBL
GEORGETOWN     CLOUDY    55  52  88 SE7       30.02R
LAGO VISTA     CLOUDY    56  52  84 SE6       30.00S
SAN MARCOS     CLOUDY    52  45  76 NE5       30.01S
NEW BRAUNFELS  CLOUDY    53  50  89 NE6       29.98R
RANDOLPH AFB   CLOUDY    55  51  86 E2        29.98S
SAN ANTONIO    CLOUDY    57  52  83 E5        29.98R
STINSON        CLOUDY    59  54  83 SE5       29.96S
PLEASANTON     NOT AVBL
LA GRANGE      CLOUDY    58  56  94 CALM      29.99S
GIDDINGS       CLOUDY    56  53  92 CALM      30.05S
$$

EAST TEXAS

CITY           SKY/WX    TMP DP  RH WIND       PRES   REMARKS
PARIS          CLEAR     43  36  75 SE8       30.12S WCI  38
CLARKSVILLE    SUNNY     47  38  73 CALM      30.12S
TYLER          PTCLDY    50  44  80 SE7       30.09F
LONGVIEW       PTCLDY    43  39  86 CALM      30.11S
PALESTINE      CLOUDY    54  47  79 E7        30.10S
NACOGDOCHES    MOCLDY    43  39  87 CALM      30.12S
$$

TEXAS HILL COUNTRY AND EDWARDS PLATEAU

CITY           SKY/WX    TMP DP  RH WIND       PRES   REMARKS
LLANO          CLOUDY    59  52  77 SE8       30.00S
HORSESHOE BAY  CLOUDY    56  49  77 SE6       29.98R
KERRVILLE      CLOUDY    56  52  86 SE15G21   29.97S
FREDERICKSBRG  CLOUDY    56  51  83 S7        29.96S
ROCKSPRINGS    CLOUDY    55  52  88 SE20G28   29.95R
HONDO          CLOUDY    59  52  77 E6        29.98S
UVALDE         CLOUDY    59  54  85 E8        29.95F
DEL RIO        MOCLDY    61  52  72 SE14      29.89S
$$

SOUTHEAST TEXAS

CITY           SKY/WX    TMP DP  RH WIND       PRES   REMARKS
COLLEGE STN    CLOUDY    55  52  89 E9        30.04S
CALDWELL       CLOUDY    52  52 100 E3        30.06S
CROCKETT       CLOUDY    55  52  88 E6        30.11F
BRENHAM        CLOUDY    56  53  89 E8        30.03F
HUNTSVILLE     CLOUDY    53  49  86 E3        30.07S
CONROE         CLOUDY    53  50  89 CALM      30.07S
HOUSTON BUSH   CLOUDY    55  53  93 E6        30.06S
HOUSTON HOBBY  CLOUDY    61  55  81 E3        30.05R
PERLAND        CLOUDY    61  55  81 E5        30.06S
WHARTON        CLOUDY    58  55  91 NE3       30.04R
$$

THE UPPER TEXAS COAST

CITY           SKY/WX    TMP DP  RH WIND       PRES   REMARKS
ORANGE         CLOUDY    56  52  86 NE6       30.11S
PORT ARTHUR    CLOUDY    59  52  77 E10       30.08R
GALVESTON      CLOUDY    65  58  78 E14       30.05F
ANGLETON       CLOUDY    63  57  81 E6        30.03S
BAY CITY       CLOUDY    63  58  86 NE6       30.03R
$$

TEXAS COASTAL BEND, RIO GRANDE PLAINS DEEP SOUTH TEXAS

CITY           SKY/WX    TMP DP  RH WIND       PRES   REMARKS
VICTORIA       CLOUDY    60  56  86 NE9       30.01R
BEEVILLE       FAIR      61  56  85 E8        29.96S
ROCKPORT       CLOUDY    67  61  81 E10       29.97S
PORT ARANSAS   CLOUDY    65  62  90 SE15G24   29.96S
PORT LAVACA    CLOUDY    64  59  83 E6        29.99F
CORPUS CHRISTI CLOUDY    66  60  81 E9        29.95S
KINGSVILLE NAS CLOUDY    64  61  90 NE6       29.94S
COTULLA        CLOUDY    61  54  77 E6        29.94S
LAREDO         CLOUDY    64  55  72 E10       29.93F
BROWNSVILLE    CLOUDY    63  60  90 E6        29.90F
PORT ISABEL    CLOUDY    67  63  87 E9        29.91F
HEBBRONVILLE   CLOUDY    59  56  89 E8        29.93S
MCALLEN        CLOUDY    64  57  78 E9        29.89F
WESLACO        CLOUDY    65  57  75 E5        29.89F
FALFURRIAS     CLOUDY    63  60  88 NE3       29.93S
EDINBURG       CLOUDY    64  57  79 CALM      29.90F
$$



USA.gov is the U.S. government's official web portal to all federal, state and local government web resources and services.